Flag Weather past 2 weeks in Memmingen, Bavaria, Germany

Now
34 °F

Passing clouds.


Feels Like: 34 °F
Forecast: 34 / 47 °F
Wind: 1 mph from Northeast

Location: Kempten

Current Time: Nov 28, 2014 at 8:36:42 PM

Latest Report: Nov 28, 2014 at 8:00 PM


Visibility: 9 mi

Pressure: 29.89 "Hg

Humidity: 96%

Dew point: 33 °F

Location of MemmingenLocation

Historic Weather in Memmingen — Graph

°F

Memmingen temperature yesterday

Maximum temperature yesterday: 44 °F (at 2:00 PM)
Minimum temperature yesterday: 36 °F (at 9:00 AM)
Average temperature yesterday: 40 °F

Past Weeks' High & Low Weather Summary

 TemperatureHumidityPressure
High60 °F (Nov 23, 2:00 PM)100% (Nov 15, 8:00 AM)30.37 "Hg (Nov 15, 8:00 AM)
Low28 °F (Nov 20, 5:00 AM)46% (Nov 23, 2:00 PM)29.53 "Hg (Nov 15, 11:00 PM)
Average41 °F89%29.99 "Hg
* Reported Nov 13 7:00 PM — Nov 28 7:00 PM, Memmingen, Weather by CustomWeather, © 2014

Note: Actual official high and low records may vary slightly from our data, if they occured in-between our weather recording intervals... More about our weather records

Advertising

Memmingen weather history for previous 24 hours

 ConditionsComfort  
Time TempWeatherWind HumidityBarometerVisibility
7:00 PM
Nov 28
35 °FClear.1 mph95%29.87 "Hg11 mi
6:00 PM36 °FClear.2 mph95%29.85 "Hg6 mi
5:00 PM38 °FOvercast.2 mph93%29.82 "Hg10 mi
3:00 PM40 °FSunny.3 mph84%29.80 "Hg25 mi
2:00 PM41 °FSunny.5 mph78%29.80 "Hg25 mi
1:00 PM42 °FSunny.2 mph75%29.80 "Hg22 mi
12:00 PM41 °FSunny.2 mph77%29.83 "Hg19 mi
11:00 AM38 °FSunny.1 mph80%29.86 "Hg19 mi
10:00 AM34 °FSunny.1 mph90%29.88 "Hg19 mi
9:00 AM31 °FSunny.1 mph97%29.90 "Hg25 mi
8:00 AM31 °FSunny.1 mph98%29.89 "Hg15 mi
7:00 AM31 °FClear.1 mph99%29.87 "Hg7 mi
6:00 AM31 °FLow clouds.1 mph100%29.87 "Hg0 mi
5:00 AM33 °FLow clouds.2 mph100%29.87 "Hg0 mi
3:00 AM35 °FLow clouds.1 mph100%29.87 "Hg1 mi
2:00 AM37 °FLow clouds.2 mph100%29.86 "Hg0 mi
1:00 AM38 °FLow clouds.1 mph100%29.85 "Hg0 mi
12:00 AM38 °FLow clouds.2 mph99%29.85 "Hg1 mi
11:00 PM
Nov 27
40 °FLow clouds.1 mph99%29.84 "Hg0 mi
10:00 PM41 °FLow clouds.1 mph99%29.85 "Hg0 mi
9:00 PM41 °FLow clouds.1 mph98%29.84 "Hg1 mi
8:00 PM41 °FFog.1 mph97%29.83 "Hg3 mi
Weather by CustomWeather, © 2014

See weather overviewHow to use our weather pages